When you browse on this site, cookies collect data to enhance your experience and personalize the content and advertising you see.
Visit our Privacy Policy to learn more. By continuing to use the site, you agree to this use of cookies and data.
  • En España
  • Lista de países
  • Para 7 días
  • Temperatura del agua
  • El tiempo en el mapa
  • Informadores
  • user-avatar
    Iniciar sesión

    Tiempo cada hora Kuznetsovsk

    Hoy, 2 Abril, Jueves

    Tiempo Temperatura Precipitaciones Viento Presión Humedad
    00:00 -1°C° 0 mm 3 mps 745 mmHg 67%
    01:00 -2°C° 0 mm 3 mps 745 mmHg 67%
    02:00 -2°C° 0 mm 3 mps 745 mmHg 68%
    03:00 -2°C° 0 mm 3 mps 745 mmHg 67%
    04:00 -3°C° 0 mm 4 mps 744 mmHg 66%
    05:00 -3°C° 0 mm 4 mps 744 mmHg 65%
    06:00 -2°C° 0 mm 4 mps 744 mmHg 60%
    07:00 0°C° 0 mm 5 mps 744 mmHg 54%
    08:00 +1°C° 0 mm 5 mps 744 mmHg 49%
    09:00 +2°C° 0 mm 5 mps 744 mmHg 46%
    10:00 +4°C° 0 mm 6 mps 743 mmHg 42%
    11:00 +7°C° 0 mm 6 mps 743 mmHg 39%
    12:00 +7°C° 0 mm 6 mps 743 mmHg 39%
    13:00 +8°C° 0 mm 6 mps 743 mmHg 39%
    14:00 +8°C° 0 mm 6 mps 743 mmHg 39%
    15:00 +8°C° 0 mm 6 mps 743 mmHg 41%
    16:00 +8°C° 0 mm 5 mps 742 mmHg 43%
    17:00 +8°C° 0 mm 5 mps 742 mmHg 45%
    18:00 +6°C° 0 mm 4 mps 742 mmHg 52%
    19:00 +5°C° 0 mm 3 mps 742 mmHg 59%
    20:00 +4°C° 0 mm 2 mps 742 mmHg 66%
    21:00 +4°C° 0 mm 2 mps 741 mmHg 68%
    22:00 +3°C° 0 mm 2 mps 741 mmHg 70%
    23:00 +1°C° 0 mm 3 mps 741 mmHg 72%

    Mañana, 3 Abril, Viernes

    Tiempo Temperatura Precipitaciones Viento Presión Humedad
    00:00 +1°C° 0 mm 3 mps 741 mmHg 70%
    01:00 0°C° 0 mm 4 mps 741 mmHg 68%
    02:00 0°C° 0 mm 4 mps 741 mmHg 66%
    03:00 0°C° 0 mm 4 mps 740 mmHg 66%
    04:00 0°C° 0 mm 5 mps 740 mmHg 66%
    05:00 -1°C° 0 mm 5 mps 740 mmHg 66%
    06:00 0°C° 0 mm 5 mps 740 mmHg 62%
    07:00 +1°C° 0 mm 6 mps 740 mmHg 58%
    08:00 +2°C° 0 mm 6 mps 740 mmHg 55%
    09:00 +4°C° 0 mm 6 mps 740 mmHg 51%
    10:00 +7°C° 0 mm 6 mps 740 mmHg 48%
    11:00 +8°C° 0 mm 7 mps 740 mmHg 44%
    12:00 +9°C° 0 mm 7 mps 740 mmHg 46%
    13:00 +9°C° 0 mm 7 mps 741 mmHg 47%
    14:00 +9°C° 0 mm 7 mps 741 mmHg 49%
    15:00 +9°C° 0.1 mm 7 mps 741 mmHg 51%
    16:00 +9°C° 0.1 mm 6 mps 741 mmHg 54%
    17:00 +8°C° 0.1 mm 6 mps 741 mmHg 57%
    18:00 +7°C° 0 mm 5 mps 742 mmHg 60%
    19:00 +5°C° 0 mm 4 mps 743 mmHg 63%
    20:00 +4°C° 0 mm 3 mps 743 mmHg 67%
    21:00 +3°C° 0 mm 3 mps 744 mmHg 68%
    22:00 +3°C° 0 mm 3 mps 744 mmHg 70%
    23:00 +2°C° 0 mm 3 mps 745 mmHg 72%

    Pasado mañana, 4 Abril, Sábado

    Tiempo Temperatura Precipitaciones Viento Presión Humedad
    00:00 +2°C° 0 mm 3 mps 746 mmHg 74%
    01:00 +1°C° 0 mm 3 mps 746 mmHg 75%
    02:00 +1°C° 0 mm 3 mps 747 mmHg 77%
    03:00 +1°C° 0 mm 2 mps 747 mmHg 79%
    04:00 +1°C° 0 mm 2 mps 748 mmHg 82%
    05:00 -1°C° 0 mm 2 mps 748 mmHg 84%
    06:00 0°C° 0 mm 3 mps 749 mmHg 77%
    07:00 +1°C° 0 mm 3 mps 750 mmHg 69%
    08:00 +3°C° 0 mm 3 mps 750 mmHg 62%
    09:00 +4°C° 0 mm 4 mps 751 mmHg 55%
    10:00 +5°C° 0 mm 4 mps 751 mmHg 48%
    11:00 +6°C° 0 mm 4 mps 751 mmHg 41%
    12:00 +7°C° 0 mm 5 mps 752 mmHg 37%
    13:00 +8°C° 0 mm 5 mps 752 mmHg 33%
    14:00 +8°C° 0 mm 5 mps 752 mmHg 29%
    15:00 +8°C° 0 mm 5 mps 752 mmHg 30%
    16:00 +8°C° 0 mm 5 mps 752 mmHg 31%
    17:00 +7°C° 0 mm 5 mps 753 mmHg 32%
    18:00 +6°C° 0 mm 4 mps 753 mmHg 38%
    19:00 +4°C° 0 mm 3 mps 754 mmHg 43%
    20:00 +4°C° 0 mm 2 mps 754 mmHg 49%
    21:00 +3°C° 0 mm 2 mps 755 mmHg 53%
    22:00 +3°C° 0 mm 2 mps 756 mmHg 57%
    23:00 +2°C° 0 mm 2 mps 756 mmHg 60%

    5 Abril, Domingo

    Tiempo Temperatura Precipitaciones Viento Presión Humedad
    00:00 +2°C° 0 mm 2 mps 757 mmHg 64%
    01:00 +1°C° 0 mm 2 mps 757 mmHg 67%
    02:00 +1°C° 0 mm 2 mps 758 mmHg 71%
    03:00 -1°C° 0 mm 2 mps 758 mmHg 73%
    04:00 -2°C° 0 mm 2 mps 759 mmHg 76%
    05:00 -2°C° 0 mm 2 mps 759 mmHg 79%
    06:00 -1°C° 0 mm 2 mps 760 mmHg 71%
    07:00 +1°C° 0 mm 2 mps 760 mmHg 64%
    08:00 +2°C° 0 mm 2 mps 761 mmHg 57%
    09:00 +2°C° 0 mm 3 mps 761 mmHg 49%
    10:00 +4°C° 0 mm 3 mps 761 mmHg 41%
    11:00 +5°C° 0 mm 3 mps 762 mmHg 34%
    12:00 +7°C° 0 mm 3 mps 762 mmHg 31%
    13:00 +8°C° 0 mm 2 mps 762 mmHg 29%
    14:00 +9°C° 0 mm 2 mps 762 mmHg 27%
    15:00 +8°C° 0 mm 2 mps 761 mmHg 28%
    16:00 +8°C° 0 mm 2 mps 761 mmHg 29%
    17:00 +8°C° 0 mm 2 mps 761 mmHg 30%
    18:00 +7°C° 0 mm 2 mps 761 mmHg 35%
    19:00 +5°C° 0 mm 2 mps 761 mmHg 39%
    20:00 +4°C° 0 mm 2 mps 761 mmHg 44%
    21:00 +3°C° 0 mm 2 mps 762 mmHg 46%
    22:00 +2°C° 0 mm 2 mps 762 mmHg 48%
    23:00 +2°C° 0 mm 2 mps 762 mmHg 50%

    6 Abril, Lunes

    Tiempo Temperatura Precipitaciones Viento Presión Humedad
    00:00 +2°C° 0 mm 2 mps 762 mmHg 52%
    01:00 +1°C° 0 mm 2 mps 762 mmHg 54%
    02:00 +1°C° 0 mm 2 mps 762 mmHg 57%
    03:00 +1°C° 0 mm 2 mps 762 mmHg 58%
    04:00 -1°C° 0 mm 3 mps 762 mmHg 59%
    05:00 -1°C° 0 mm 3 mps 762 mmHg 60%
    06:00 +1°C° 0 mm 3 mps 763 mmHg 55%
    07:00 +1°C° 0 mm 4 mps 763 mmHg 50%
    08:00 +2°C° 0 mm 5 mps 763 mmHg 44%
    09:00 +5°C° 0 mm 5 mps 763 mmHg 41%
    10:00 +7°C° 0 mm 5 mps 763 mmHg 37%
    11:00 +8°C° 0 mm 5 mps 763 mmHg 33%
    12:00 +9°C° 0 mm 5 mps 763 mmHg 33%
    13:00 +10°C° 0 mm 5 mps 762 mmHg 32%
    14:00 +12°C° 0 mm 5 mps 762 mmHg 32%
    15:00 +12°C° 0 mm 5 mps 762 mmHg 33%
    16:00 +12°C° 0 mm 5 mps 762 mmHg 34%
    17:00 +12°C° 0 mm 4 mps 761 mmHg 35%
    18:00 +11°C° 0 mm 4 mps 761 mmHg 41%
    19:00 +8°C° 0 mm 4 mps 761 mmHg 46%
    20:00 +7°C° 0 mm 3 mps 761 mmHg 51%
    21:00 +5°C° 0 mm 3 mps 761 mmHg 52%
    22:00 +5°C° 0 mm 4 mps 761 mmHg 52%
    23:00 +4°C° 0 mm 4 mps 761 mmHg 52%

    7 Abril, Martes

    Tiempo Temperatura Precipitaciones Viento Presión Humedad
    00:00 +4°C° 0 mm 4 mps 761 mmHg 53%
    01:00 +3°C° 0 mm 3 mps 761 mmHg 54%
    02:00 +3°C° 0 mm 3 mps 761 mmHg 55%
    03:00 +2°C° 0 mm 3 mps 761 mmHg 56%
    04:00 +2°C° 0 mm 3 mps 761 mmHg 57%
    05:00 +2°C° 0 mm 3 mps 761 mmHg 58%
    06:00 +3°C° 0 mm 3 mps 761 mmHg 54%
    07:00 +4°C° 0 mm 3 mps 762 mmHg 51%
    08:00 +6°C° 0 mm 4 mps 762 mmHg 48%
    09:00 +9°C° 0 mm 3 mps 762 mmHg 43%
    10:00 +11°C° 0 mm 3 mps 762 mmHg 39%
    11:00 +14°C° 0 mm 3 mps 761 mmHg 34%
    12:00 +16°C° 0 mm 3 mps 761 mmHg 31%
    13:00 +17°C° 0 mm 3 mps 761 mmHg 28%
    14:00 +18°C° 0 mm 3 mps 761 mmHg 25%
    15:00 +18°C° 0 mm 3 mps 761 mmHg 27%
    16:00 +18°C° 0 mm 3 mps 760 mmHg 29%
    17:00 +17°C° 0 mm 3 mps 760 mmHg 30%
    18:00 +15°C° 0 mm 2 mps 760 mmHg 35%
    19:00 +13°C° 0 mm 2 mps 760 mmHg 39%
    20:00 +10°C° 0 mm 2 mps 760 mmHg 43%
    21:00 +9°C° 0 mm 2 mps 760 mmHg 45%
    22:00 +10°C° 0 mm 1 mps 760 mmHg 46%
    23:00 +9°C° 0 mm 1 mps 760 mmHg 47%
    Mostrar más